OKALK EKVG-LKPR

Flight info

Callsign OKALK
Flight time N/A
Altitude 49000
Route EKVG/12 N0411F350 ODEV2W ODEVA DCT GOLOP GOLO5R LKPR/30 GOLOP5R/30
Aircraft GLEX/L-SABDFGRWZ/S

Departure

Time N/A
Airport Vágar Airport (EKVG)

Arrival

Time 2026-05-06 18:40
Airport Václav Havel Airport Prague (LKPR)
Time Latitude Longitude Altitude Speed Heading
2026-05-06 18:40 50.09928 14.28555 1183 ft 0 kts 187°
2026-05-06 18:44 50.09913 14.28552 1211 ft 2 kts 187°
2026-05-06 18:44 50.09901 14.28549 1211 ft 2 kts 192°
2026-05-06 18:45 50.09891 14.28532 1211 ft 2 kts 245°
2026-05-06 18:45 50.09889 14.28518 1211 ft 2 kts 258°
2026-05-06 18:45 50.09886 14.28502 1211 ft 1 kts 258°
2026-05-06 18:45 50.09884 14.28482 1211 ft 2 kts 258°
2026-05-06 18:46 50.09880 14.28461 1211 ft 2 kts 247°
2026-05-06 18:46 50.09871 14.28447 1211 ft 2 kts 206°
2026-05-06 18:46 50.09861 14.28445 1211 ft 2 kts 182°
2026-05-06 18:46 50.09844 14.28448 1211 ft 2 kts 170°
2026-05-06 18:47 50.09832 14.28451 1211 ft 2 kts 170°
2026-05-06 18:47 50.09818 14.28455 1211 ft 2 kts 170°
2026-05-06 18:47 50.09809 14.28457 1211 ft 2 kts 172°
2026-05-06 18:47 50.09795 14.28452 1211 ft 2 kts 206°
2026-05-06 18:48 50.09787 14.28441 1211 ft 2 kts 227°
2026-05-06 18:48 50.09778 14.28426 1211 ft 2 kts 227°
2026-05-06 18:48 50.09774 14.28405 1211 ft 2 kts 257°
2026-05-06 18:48 50.09770 14.28383 1211 ft 2 kts 258°
2026-05-06 18:49 50.09767 14.28356 1211 ft 3 kts 258°
2026-05-06 18:49 50.09762 14.28320 1211 ft 3 kts 258°
2026-05-06 18:49 50.09757 14.28283 1211 ft 3 kts 258°
2026-05-06 18:49 50.09752 14.28246 1211 ft 3 kts 258°
2026-05-06 18:50 50.09746 14.28208 1211 ft 3 kts 258°
2026-05-06 18:50 50.09741 14.28169 1211 ft 3 kts 258°
2026-05-06 18:50 50.09737 14.28132 1211 ft 3 kts 258°
2026-05-06 18:50 50.09732 14.28094 1211 ft 4 kts 258°
2026-05-06 18:51 50.09727 14.28058 1211 ft 3 kts 258°
2026-05-06 18:51 50.09724 14.28032 1211 ft 4 kts 258°
2026-05-06 18:51 50.09717 14.27983 1211 ft 4 kts 258°
2026-05-06 18:51 50.09712 14.27945 1210 ft 3 kts 258°
2026-05-06 18:52 50.09709 14.27920 1209 ft 3 kts 258°
2026-05-06 18:52 50.09704 14.27882 1207 ft 3 kts 258°
2026-05-06 18:52 50.09697 14.27836 1205 ft 3 kts 257°
2026-05-06 18:52 50.09692 14.27804 1205 ft 3 kts 256°
2026-05-06 18:53 50.09688 14.27766 1206 ft 3 kts 259°
2026-05-06 18:53 50.09679 14.27731 1206 ft 3 kts 228°
2026-05-06 18:53 50.09660 14.27706 1207 ft 3 kts 217°
2026-05-06 18:53 50.09637 14.27687 1207 ft 3 kts 194°
2026-05-06 18:54 50.09613 14.27691 1208 ft 3 kts 158°
2026-05-06 18:54 50.09593 14.27713 1209 ft 3 kts 136°
2026-05-06 18:54 50.09575 14.27740 1209 ft 4 kts 135°
2026-05-06 18:54 50.09557 14.27768 1210 ft 4 kts 135°
2026-05-06 18:55 50.09539 14.27795 1210 ft 3 kts 135°
2026-05-06 18:55 50.09522 14.27822 1211 ft 3 kts 135°
2026-05-06 18:55 50.09504 14.27849 1212 ft 3 kts 136°
2026-05-06 18:55 50.09486 14.27876 1213 ft 3 kts 135°
2026-05-06 18:56 50.09469 14.27902 1213 ft 3 kts 135°
2026-05-06 18:56 50.09451 14.27929 1214 ft 3 kts 136°
2026-05-06 18:56 50.09434 14.27955 1214 ft 3 kts 136°
2026-05-06 18:56 50.09416 14.27983 1213 ft 3 kts 134°
2026-05-06 18:57 50.09398 14.28010 1213 ft 3 kts 135°
2026-05-06 18:57 50.09381 14.28037 1213 ft 3 kts 134°
2026-05-06 18:57 50.09364 14.28065 1213 ft 4 kts 134°
2026-05-06 18:57 50.09352 14.28083 1213 ft 3 kts 134°
2026-05-06 18:58 50.09333 14.28112 1213 ft 3 kts 134°
2026-05-06 18:58 50.09317 14.28138 1213 ft 3 kts 136°
2026-05-06 18:58 50.09296 14.28169 1213 ft 4 kts 135°
2026-05-06 18:58 50.09284 14.28188 1212 ft 3 kts 135°
2026-05-06 18:59 50.09273 14.28204 1212 ft 3 kts 135°
2026-05-06 18:59 50.09251 14.28242 1211 ft 3 kts 121°
2026-05-06 18:59 50.09247 14.28277 1211 ft 3 kts 91°
2026-05-06 18:59 50.09248 14.28291 1211 ft 3 kts 82°
2026-05-06 19:00 50.09254 14.28346 1211 ft 3 kts 78°
2026-05-06 19:00 50.09259 14.28379 1212 ft 3 kts 78°
2026-05-06 19:00 50.09264 14.28416 1213 ft 3 kts 78°
2026-05-06 19:00 50.09269 14.28454 1213 ft 3 kts 78°
2026-05-06 19:01 50.09274 14.28493 1214 ft 3 kts 78°
2026-05-06 19:01 50.09282 14.28535 1215 ft 3 kts 69°
2026-05-06 19:01 50.09292 14.28564 1216 ft 3 kts 63°
2026-05-06 19:01 50.09302 14.28597 1217 ft 3 kts 63°
2026-05-06 19:02 50.09311 14.28638 1218 ft 3 kts 77°
2026-05-06 19:02 50.09312 14.28644 1219 ft 0 kts 77°
2026-05-06 19:03 50.09314 14.28660 1219 ft 0 kts 77°
2026-05-06 19:03 50.09319 14.28691 1219 ft 3 kts 76°
2026-05-06 19:04 50.09323 14.28715 1219 ft 3 kts 76°
2026-05-06 19:04 50.09333 14.28752 1218 ft 3 kts 54°
2026-05-06 19:04 50.09361 14.28775 1214 ft 3 kts 10°
2026-05-06 19:04 50.09378 14.28774 1212 ft 3 kts 350°
2026-05-06 19:05 50.09397 14.28768 1211 ft 0 kts 347°
2026-05-06 19:05 50.09393 14.28769 1211 ft 0 kts 353°
2026-05-06 19:05 50.09397 14.28768 1211 ft 7 kts 348°
2026-05-06 19:05 50.09403 14.28766 1211 ft 1 kts 351°
2026-05-06 19:06 50.09397 14.28770 1211 ft 1 kts 322°
2026-05-06 19:06 50.09391 14.28780 1211 ft 1 kts 275°
2026-05-06 19:06 50.09392 14.28794 1211 ft 1 kts 259°
2026-05-06 19:06 50.09393 14.28798 1211 ft 1 kts 259°
2026-05-06 19:07 50.09395 14.28815 1211 ft 0 kts 258°